User: anonymous   Login
Location: Unspecified
(0.0000°N, 0.0000°E)
Time: 09:41:38
(UTC+00:00)
Language:

Kosmos-2061 - Orbit

View from above orbital plane
View from above orbital plane
View from above satellite
View from above satellite

Ground track
Ground track

The orbit data is extracted from the following two-line orbital elements,

1 20527U 90023A   18110.83898264  .00000051  00000-0  39490-4 0  9994
2 20527  82.9400 207.8417 0029727 255.0534 226.4958 13.72134006406497
Epoch (UTC): 20 April 2018 20:08:08
Eccentricity: 0.0029727
inclination: 82.9400°
perigee height: 970 km
apogee height: 1014 km
right ascension of ascending node: 207.8417°
argument of perigee: 255.0534°
revolutions per day: 13.72134006
mean anomaly at epoch: 226.4958°
orbit number at epoch: 40649

The dashed part of the orbit path shows where the satellite is in the earth's shadow,  

DLR